Time,TemperatureF,DewpointF,PressureIn,WindDirection,WindDirectionDegrees,WindSpeedMPH,WindSpeedGustMPH,Humidity,HourlyPrecipIn,Conditions,Clouds,dailyrainin,SoftwareType,DateUTC
2014-10-21 00:07:00,53.2,49.1,29.86,WSW,237,4.0,8.0,86,0.00,,,0.01,Wunderground v.1.15,2014-10-20 23:07:00,
2014-10-21 00:12:00,53.1,49.0,29.85,SW,222,4.0,4.0,86,0.00,,,0.01,Wunderground v.1.15,2014-10-20 23:12:00,
2014-10-21 00:17:00,53.2,49.1,29.85,WSW,241,3.0,5.0,86,0.00,,,0.01,Wunderground v.1.15,2014-10-20 23:17:00,
2014-10-21 00:22:00,53.2,49.1,29.85,SW,230,4.0,4.0,86,0.00,,,0.01,Wunderground v.1.15,2014-10-20 23:22:00,
2014-10-21 00:32:00,53.3,49.2,29.84,SW,226,3.0,8.0,86,0.00,,,0.01,Wunderground v.1.15,2014-10-20 23:32:00,
2014-10-21 00:37:00,53.4,49.3,29.84,SW,228,3.0,8.0,86,0.00,,,0.01,Wunderground v.1.15,2014-10-20 23:37:00,
2014-10-21 00:42:00,53.5,49.7,29.83,WSW,238,3.0,3.0,87,0.00,,,0.01,Wunderground v.1.15,2014-10-20 23:42:00,
2014-10-21 00:47:00,53.6,49.8,29.83,WSW,237,3.0,4.0,87,0.00,,,0.01,Wunderground v.1.15,2014-10-20 23:47:00,
2014-10-21 00:52:00,53.7,49.6,29.83,SW,234,4.0,9.0,86,0.00,,,0.01,Wunderground v.1.15,2014-10-20 23:52:00,
2014-10-21 01:02:00,54.0,50.2,29.83,SW,230,4.0,9.0,87,0.00,,,0.00,Wunderground v.1.15,2014-10-21 00:02:00,
2014-10-21 01:07:00,54.2,50.4,29.82,WSW,239,5.0,9.0,87,0.00,,,0.00,Wunderground v.1.15,2014-10-21 00:07:00,
2014-10-21 01:12:00,54.4,50.3,29.81,SW,221,5.0,9.0,86,0.00,,,0.00,Wunderground v.1.15,2014-10-21 00:12:00,
2014-10-21 01:17:00,54.7,50.6,29.81,WSW,241,5.0,9.0,86,0.00,,,0.00,Wunderground v.1.15,2014-10-21 00:17:00,
2014-10-21 01:22:00,54.8,50.7,29.81,SW,220,5.0,9.0,86,0.00,,,0.00,Wunderground v.1.15,2014-10-21 00:22:00,
2014-10-21 01:32:00,55.2,50.8,29.80,West,259,7.0,14.0,85,0.00,,,0.00,Wunderground v.1.15,2014-10-21 00:32:00,
2014-10-21 01:37:00,55.3,50.9,29.80,SW,224,8.0,14.0,85,0.00,,,0.00,Wunderground v.1.15,2014-10-21 00:37:00,
2014-10-21 01:42:00,55.4,50.6,29.79,WSW,245,8.0,8.0,84,0.00,,,0.00,Wunderground v.1.15,2014-10-21 00:42:00,
2014-10-21 01:47:00,55.4,50.6,29.78,SW,226,7.0,14.0,84,0.00,,,0.00,Wunderground v.1.15,2014-10-21 00:47:00,
2014-10-21 01:52:00,55.5,50.7,29.78,SSW,207,5.0,5.0,84,0.00,,,0.00,Wunderground v.1.15,2014-10-21 00:52:00,
2014-10-21 02:02:00,55.7,50.6,29.78,SW,226,5.0,12.0,83,0.00,,,0.00,Wunderground v.1.15,2014-10-21 01:02:00,
2014-10-21 02:07:00,55.7,50.6,29.78,SW,231,6.0,12.0,83,0.00,,,0.00,Wunderground v.1.15,2014-10-21 01:07:00,
2014-10-21 02:12:00,55.7,50.6,29.77,SW,232,5.0,5.0,83,0.00,,,0.00,Wunderground v.1.15,2014-10-21 01:12:00,
2014-10-21 02:22:00,55.8,50.4,29.77,SW,222,6.0,13.0,82,0.00,,,0.00,Wunderground v.1.15,2014-10-21 01:22:00,
2014-10-21 02:32:00,55.9,50.5,29.76,WSW,246,7.0,15.0,82,0.00,,,0.00,Wunderground v.1.15,2014-10-21 01:32:00,
2014-10-21 02:37:00,56.0,50.3,29.75,WSW,237,9.0,17.0,81,0.00,,,0.00,Wunderground v.1.15,2014-10-21 01:37:00,
2014-10-21 02:42:00,56.0,50.3,29.76,SW,218,10.0,10.0,81,0.00,,,0.00,Wunderground v.1.15,2014-10-21 01:42:00,
2014-10-21 02:47:00,56.2,50.1,29.75,SW,215,9.0,20.0,80,0.00,,,0.00,Wunderground v.1.15,2014-10-21 01:47:00,
2014-10-21 02:52:00,56.0,50.3,29.75,SW,235,7.0,14.0,81,0.00,,,0.00,Wunderground v.1.15,2014-10-21 01:52:00,
2014-10-21 02:57:00,56.0,49.9,29.75,SW,234,6.0,19.0,80,0.00,,,0.00,Wunderground v.1.15,2014-10-21 01:57:00,
2014-10-21 03:07:00,56.2,50.1,29.73,SW,223,9.0,11.0,80,0.00,,,0.00,Wunderground v.1.15,2014-10-21 02:07:00,
2014-10-21 03:12:00,56.0,49.9,29.72,SW,234,8.0,8.0,80,0.00,,,0.00,Wunderground v.1.15,2014-10-21 02:12:00,
2014-10-21 03:17:00,56.0,49.9,29.73,SSE,158,8.0,12.0,80,0.00,,,0.00,Wunderground v.1.15,2014-10-21 02:17:00,
2014-10-21 03:27:00,55.8,50.1,29.71,SW,234,7.0,11.0,81,0.00,,,0.00,Wunderground v.1.15,2014-10-21 02:27:00,
2014-10-21 03:37:00,55.4,50.0,29.70,WSW,237,5.0,13.0,82,0.00,,,0.00,Wunderground v.1.15,2014-10-21 02:37:00,
2014-10-21 03:42:00,55.2,49.8,29.70,SW,235,5.0,15.0,82,0.00,,,0.00,Wunderground v.1.15,2014-10-21 02:42:00,
2014-10-21 03:47:00,55.2,49.8,29.70,SW,233,6.0,6.0,82,0.00,,,0.00,Wunderground v.1.15,2014-10-21 02:47:00,
2014-10-21 03:57:00,55.4,50.0,29.69,WSW,245,7.0,14.0,82,0.00,,,0.00,Wunderground v.1.15,2014-10-21 02:57:00,
2014-10-21 04:02:00,55.6,50.2,29.70,SW,229,7.0,7.0,82,0.00,,,0.00,Wunderground v.1.15,2014-10-21 03:02:00,
2014-10-21 04:07:00,55.7,50.3,29.70,WSW,247,7.0,13.0,82,0.00,,,0.00,Wunderground v.1.15,2014-10-21 03:07:00,
2014-10-21 04:12:00,55.7,50.6,29.69,SW,236,7.0,7.0,83,0.00,,,0.00,Wunderground v.1.15,2014-10-21 03:12:00,
2014-10-21 04:17:00,55.4,50.6,29.69,SW,228,6.0,13.0,84,0.00,,,0.01,Wunderground v.1.15,2014-10-21 03:17:00,
2014-10-21 04:22:00,55.1,50.7,29.68,SW,228,7.0,12.0,85,0.11,,,0.02,Wunderground v.1.15,2014-10-21 03:22:00,
2014-10-21 04:32:00,54.8,50.7,29.67,SW,224,6.0,6.0,86,0.05,,,0.02,Wunderground v.1.15,2014-10-21 03:32:00,
2014-10-21 04:37:00,54.8,50.7,29.67,SSW,211,6.0,14.0,86,0.04,,,0.02,Wunderground v.1.15,2014-10-21 03:37:00,
2014-10-21 04:42:00,54.8,51.0,29.67,SW,233,7.0,7.0,87,0.04,,,0.02,Wunderground v.1.15,2014-10-21 03:42:00,
2014-10-21 04:47:00,54.9,51.1,29.66,SW,232,8.0,9.0,87,0.04,,,0.02,Wunderground v.1.15,2014-10-21 03:47:00,
2014-10-21 04:52:00,54.9,51.1,29.66,SSW,211,8.0,8.0,87,0.04,,,0.02,Wunderground v.1.15,2014-10-21 03:52:00,
2014-10-21 05:02:00,54.9,51.1,29.65,SW,231,7.0,12.0,87,0.00,,,0.03,Wunderground v.1.15,2014-10-21 04:02:00,
2014-10-21 05:07:00,54.9,51.1,29.65,WSW,241,7.0,12.0,87,0.00,,,0.03,Wunderground v.1.15,2014-10-21 04:07:00,
2014-10-21 05:12:00,54.9,51.1,29.64,SW,231,8.0,17.0,87,0.00,,,0.03,Wunderground v.1.15,2014-10-21 04:12:00,
2014-10-21 05:17:00,54.9,51.1,29.63,West,274,8.0,17.0,87,0.00,,,0.04,Wunderground v.1.15,2014-10-21 04:17:00,
2014-10-21 05:22:00,55.0,51.2,29.63,WSW,244,9.0,9.0,87,0.00,,,0.04,Wunderground v.1.15,2014-10-21 04:22:00,
2014-10-21 05:32:00,55.2,51.7,29.61,WSW,249,8.0,15.0,88,0.00,,,0.04,Wunderground v.1.15,2014-10-21 04:32:00,
2014-10-21 05:37:00,55.3,51.5,29.61,SSW,207,9.0,17.0,87,0.00,,,0.04,Wunderground v.1.15,2014-10-21 04:37:00,
2014-10-21 05:42:00,55.4,51.6,29.60,SW,229,9.0,22.0,87,0.00,,,0.04,Wunderground v.1.15,2014-10-21 04:42:00,
2014-10-21 05:47:00,55.5,51.7,29.60,WSW,238,9.0,22.0,87,0.00,,,0.04,Wunderground v.1.15,2014-10-21 04:47:00,
2014-10-21 05:52:00,55.5,51.7,29.59,SW,223,9.0,18.0,87,0.00,,,0.04,Wunderground v.1.15,2014-10-21 04:52:00,
2014-10-21 06:02:00,55.6,51.8,29.59,West,263,9.0,9.0,87,0.00,,,0.04,Wunderground v.1.15,2014-10-21 05:02:00,
2014-10-21 06:07:00,55.7,51.9,29.59,WSW,247,9.0,10.0,87,0.00,,,0.04,Wunderground v.1.15,2014-10-21 05:07:00,
2014-10-21 06:12:00,55.8,52.0,29.58,SW,230,8.0,8.0,87,0.00,,,0.04,Wunderground v.1.15,2014-10-21 05:12:00,
2014-10-21 06:17:00,55.8,52.0,29.58,WSW,237,8.0,15.0,87,0.00,,,0.04,Wunderground v.1.15,2014-10-21 05:17:00,
2014-10-21 06:22:00,55.9,52.1,29.58,SSW,199,8.0,8.0,87,0.00,,,0.04,Wunderground v.1.15,2014-10-21 05:22:00,
2014-10-21 06:32:00,56.2,52.4,29.57,WSW,254,8.0,8.0,87,0.00,,,0.04,Wunderground v.1.15,2014-10-21 05:32:00,
2014-10-21 06:37:00,56.4,52.6,29.57,SW,235,8.0,9.0,87,0.00,,,0.04,Wunderground v.1.15,2014-10-21 05:37:00,
2014-10-21 06:42:00,56.5,52.4,29.57,SSW,209,8.0,15.0,86,0.00,,,0.04,Wunderground v.1.15,2014-10-21 05:42:00,
2014-10-21 06:47:00,56.7,52.6,29.57,SW,234,8.0,17.0,86,0.00,,,0.04,Wunderground v.1.15,2014-10-21 05:47:00,
2014-10-21 06:52:00,56.7,52.6,29.57,SSW,212,8.0,8.0,86,0.00,,,0.04,Wunderground v.1.15,2014-10-21 05:52:00,
2014-10-21 06:57:00,56.8,52.7,29.56,SSW,213,8.0,13.0,86,0.00,,,0.04,Wunderground v.1.15,2014-10-21 05:57:00,
2014-10-21 07:07:00,56.9,52.8,29.57,SW,221,8.0,14.0,86,0.00,,,0.04,Wunderground v.1.15,2014-10-21 06:07:00,
2014-10-21 07:12:00,56.8,52.7,29.57,West,265,6.0,6.0,86,0.00,,,0.04,Wunderground v.1.15,2014-10-21 06:12:00,
2014-10-21 07:17:00,56.7,52.6,29.57,WNW,286,5.0,16.0,86,0.00,,,0.04,Wunderground v.1.15,2014-10-21 06:17:00,
2014-10-21 07:22:00,56.7,52.6,29.57,SW,233,5.0,5.0,86,0.00,,,0.04,Wunderground v.1.15,2014-10-21 06:22:00,
2014-10-21 07:32:00,56.6,52.5,29.57,WSW,245,5.0,13.0,86,0.00,,,0.04,Wunderground v.1.15,2014-10-21 06:32:00,
2014-10-21 07:37:00,56.7,52.6,29.57,WSW,242,6.0,13.0,86,0.00,,,0.04,Wunderground v.1.15,2014-10-21 06:37:00,
2014-10-21 07:42:00,56.7,52.2,29.57,SSW,205,6.0,14.0,85,0.00,,,0.04,Wunderground v.1.15,2014-10-21 06:42:00,
2014-10-21 07:47:00,56.9,52.1,29.57,WSW,249,6.0,17.0,84,0.00,,,0.04,Wunderground v.1.15,2014-10-21 06:47:00,
2014-10-21 07:52:00,56.8,52.0,29.57,SW,218,6.0,6.0,84,0.00,,,0.04,Wunderground v.1.15,2014-10-21 06:52:00,
2014-10-21 08:02:00,56.8,52.0,29.57,WSW,239,5.0,12.0,84,0.00,,,0.04,Wunderground v.1.15,2014-10-21 07:02:00,
2014-10-21 08:07:00,56.8,51.7,29.57,WNW,296,6.0,16.0,83,0.00,,,0.04,Wunderground v.1.15,2014-10-21 07:07:00,
2014-10-21 08:12:00,56.5,51.4,29.58,WSW,243,6.0,6.0,83,0.00,,,0.04,Wunderground v.1.15,2014-10-21 07:12:00,
2014-10-21 08:17:00,56.3,51.5,29.58,SW,226,5.0,8.0,84,0.00,,,0.04,Wunderground v.1.15,2014-10-21 07:17:00,
2014-10-21 08:27:00,56.0,50.9,29.58,West,272,6.0,13.0,83,0.00,,,0.04,Wunderground v.1.15,2014-10-21 07:27:00,
2014-10-21 08:37:00,55.8,50.4,29.58,NW,308,5.0,15.0,82,0.00,,,0.04,Wunderground v.1.15,2014-10-21 07:37:00,
2014-10-21 08:42:00,55.7,50.3,29.59,WNW,291,5.0,15.0,82,0.00,,,0.04,Wunderground v.1.15,2014-10-21 07:42:00,
2014-10-21 08:47:00,55.6,50.2,29.59,SW,220,6.0,17.0,82,0.00,,,0.04,Wunderground v.1.15,2014-10-21 07:47:00,
2014-10-21 08:52:00,55.7,50.3,29.59,NW,305,5.0,17.0,82,0.00,,,0.04,Wunderground v.1.15,2014-10-21 07:52:00,
2014-10-21 09:02:00,56.1,50.3,29.60,NNW,330,5.0,13.0,81,0.00,,,0.04,Wunderground v.1.15,2014-10-21 08:02:00,
2014-10-21 09:07:00,56.4,50.3,29.61,WNW,299,6.0,15.0,80,0.00,,,0.04,Wunderground v.1.15,2014-10-21 08:07:00,
2014-10-21 09:12:00,56.1,50.0,29.61,WNW,303,6.0,6.0,80,0.00,,,0.04,Wunderground v.1.15,2014-10-21 08:12:00,
2014-10-21 09:17:00,55.9,49.8,29.62,SW,220,5.0,19.0,80,0.00,,,0.04,Wunderground v.1.15,2014-10-21 08:17:00,
2014-10-21 09:22:00,55.7,48.9,29.62,SW,228,5.0,20.0,78,0.00,,,0.04,Wunderground v.1.15,2014-10-21 08:22:00,
2014-10-21 09:32:00,55.5,48.4,29.63,WNW,293,5.0,5.0,77,0.00,,,0.04,Wunderground v.1.15,2014-10-21 08:32:00,
2014-10-21 09:37:00,55.2,47.8,29.63,West,259,6.0,7.0,76,0.00,,,0.04,Wunderground v.1.15,2014-10-21 08:37:00,
2014-10-21 09:42:00,55.0,46.9,29.63,WNW,286,7.0,7.0,74,0.00,,,0.04,Wunderground v.1.15,2014-10-21 08:42:00,
2014-10-21 09:47:00,54.8,47.0,29.64,WSW,241,6.0,23.0,75,0.00,,,0.04,Wunderground v.1.15,2014-10-21 08:47:00,
2014-10-21 09:57:00,54.0,44.8,29.65,NW,307,6.0,16.0,71,0.00,,,0.04,Wunderground v.1.15,2014-10-21 08:57:00,
2014-10-21 10:02:00,54.1,44.9,29.65,NW,310,7.0,16.0,71,0.00,,,0.04,Wunderground v.1.15,2014-10-21 09:02:00,
2014-10-21 10:07:00,54.5,44.9,29.66,WNW,303,6.0,16.0,70,0.00,,,0.04,Wunderground v.1.15,2014-10-21 09:07:00,
2014-10-21 10:12:00,54.7,45.1,29.66,WSW,239,7.0,7.0,70,0.00,,,0.04,Wunderground v.1.15,2014-10-21 09:12:00,
2014-10-21 10:22:00,54.8,44.8,29.67,South,187,6.0,6.0,69,0.00,,,0.04,Wunderground v.1.15,2014-10-21 09:22:00,
2014-10-21 10:27:00,54.9,44.9,29.67,NW,326,6.0,10.0,69,0.00,,,0.04,Wunderground v.1.15,2014-10-21 09:27:00,
2014-10-21 10:32:00,54.8,44.4,29.68,West,276,6.0,6.0,68,0.00,,,0.04,Wunderground v.1.15,2014-10-21 09:32:00,
2014-10-21 10:37:00,54.8,44.8,29.68,South,170,6.0,7.0,69,0.00,,,0.04,Wunderground v.1.15,2014-10-21 09:37:00,
2014-10-21 10:42:00,54.5,44.5,29.68,WSW,241,7.0,7.0,69,0.00,,,0.04,Wunderground v.1.15,2014-10-21 09:42:00,
2014-10-21 10:52:00,54.4,44.8,29.69,NW,305,6.0,19.0,70,0.00,,,0.04,Wunderground v.1.15,2014-10-21 09:52:00,
2014-10-21 10:57:00,54.5,44.2,29.69,WSW,257,8.0,19.0,68,0.00,,,0.04,Wunderground v.1.15,2014-10-21 09:57:00,
2014-10-21 11:02:00,54.7,44.0,29.70,WNW,286,7.0,18.0,67,0.00,,,0.04,Wunderground v.1.15,2014-10-21 10:02:00,
2014-10-21 11:07:00,54.7,44.3,29.70,West,272,6.0,18.0,68,0.00,,,0.04,Wunderground v.1.15,2014-10-21 10:07:00,
2014-10-21 11:12:00,54.6,44.2,29.70,West,278,6.0,6.0,68,0.00,,,0.04,Wunderground v.1.15,2014-10-21 10:12:00,
2014-10-21 11:22:00,54.3,44.3,29.71,WNW,299,6.0,21.0,69,0.00,,,0.04,Wunderground v.1.15,2014-10-21 10:22:00,
2014-10-21 11:27:00,54.3,44.3,29.71,NW,309,7.0,22.0,69,0.00,,,0.04,Wunderground v.1.15,2014-10-21 10:27:00,
2014-10-21 11:32:00,54.2,44.2,29.71,WNW,297,7.0,7.0,69,0.00,,,0.04,Wunderground v.1.15,2014-10-21 10:32:00,
2014-10-21 11:37:00,54.0,44.1,29.72,WNW,295,7.0,18.0,69,0.00,,,0.04,Wunderground v.1.15,2014-10-21 10:37:00,
2014-10-21 11:42:00,54.3,44.3,29.72,WNW,289,6.0,6.0,69,0.00,,,0.04,Wunderground v.1.15,2014-10-21 10:42:00,
2014-10-21 11:52:00,54.4,44.4,29.73,WNW,289,6.0,15.0,69,0.00,,,0.04,Wunderground v.1.15,2014-10-21 10:52:00,
2014-10-21 11:57:00,54.6,44.2,29.73,NW,319,5.0,15.0,68,0.00,,,0.04,Wunderground v.1.15,2014-10-21 10:57:00,
2014-10-21 12:02:00,54.8,44.4,29.73,SW,232,5.0,12.0,68,0.00,,,0.04,Wunderground v.1.15,2014-10-21 11:02:00,